TimePDT,TemperatureF,Dew PointF,Humidity,Sea Level PressureIn,VisibilityMPH,Wind Direction,Wind SpeedMPH,Gust SpeedMPH,PrecipitationIn,Events,Conditions,WindDirDegrees,DateUTC
12:58 AM,67.3,67.3,100,29.81,10.0,SSW,2.3,-,N/A,,Clear,200,2013-08-28 07:58:00
1:58 AM,67.8,66.4,95,29.80,10.0,West,1.2,-,N/A,,Clear,280,2013-08-28 08:58:00
2:58 AM,67.3,63.5,88,29.79,10.0,West,3.5,-,N/A,,Clear,280,2013-08-28 09:58:00
3:58 AM,66.6,64.6,93,29.79,10.0,West,3.5,-,N/A,,Clear,260,2013-08-28 10:58:00
4:58 AM,66.2,65.8,99,29.79,10.0,West,2.3,-,N/A,,Clear,270,2013-08-28 11:58:00
5:58 AM,65.8,65.8,100,29.80,10.0,West,2.3,-,N/A,,Clear,280,2013-08-28 12:58:00
6:58 AM,66.2,66.2,100,29.82,10.0,South,2.3,-,N/A,,Clear,190,2013-08-28 13:58:00
7:58 AM,70.9,64.9,81,29.85,10.0,SW,2.3,-,N/A,,Clear,220,2013-08-28 14:58:00
8:58 AM,74.5,61.0,63,29.86,10.0,Variable,1.2,-,N/A,,Clear,0,2013-08-28 15:58:00
9:58 AM,78.1,57.2,49,29.87,10.0,SSE,3.5,-,N/A,,Clear,160,2013-08-28 16:58:00
10:58 AM,82.8,52.9,36,29.87,10.0,SSW,8.1,-,N/A,,Partly Cloudy,210,2013-08-28 17:58:00
11:58 AM,84.7,50.5,31,29.87,10.0,SSW,9.2,-,N/A,,Partly Cloudy,200,2013-08-28 18:58:00
12:58 PM,83.5,52.9,35,29.86,10.0,SSW,10.4,-,N/A,,Partly Cloudy,200,2013-08-28 19:58:00
1:58 PM,84.6,51.4,32,29.84,10.0,South,9.2,-,N/A,,Partly Cloudy,180,2013-08-28 20:58:00
2:58 PM,87.3,53.8,32,29.83,10.0,South,8.1,-,N/A,,Partly Cloudy,170,2013-08-28 21:58:00
3:58 PM,92.5,53.8,27,29.81,10.0,West,10.4,-,N/A,,Partly Cloudy,270,2013-08-28 22:58:00
4:58 PM,90.0,49.6,25,29.81,10.0,West,9.2,-,N/A,,Partly Cloudy,270,2013-08-28 23:58:00
5:58 PM,88.5,43.2,20,29.81,10.0,West,9.2,-,N/A,,Partly Cloudy,280,2013-08-29 00:58:00
6:58 PM,85.1,46.2,26,29.82,10.0,Variable,2.3,-,N/A,,Clear,0,2013-08-29 01:58:00
7:58 PM,79.0,47.8,33,29.84,10.0,West,6.9,-,N/A,,Clear,280,2013-08-29 02:58:00
8:58 PM,76.1,51.3,42,29.87,10.0,NW,2.3,-,N/A,,Clear,310,2013-08-29 03:58:00
9:58 PM,74.3,51.3,44,29.89,10.0,NW,4.6,-,N/A,,Clear,310,2013-08-29 04:58:00
10:58 PM,71.6,58.8,64,29.90,10.0,South,4.6,-,N/A,,Clear,180,2013-08-29 05:58:00
11:58 PM,67.8,65.8,93,29.90,5.0,Calm,Calm,-,N/A,,Clear,0,2013-08-29 06:58:00